Track STARLINK-3653 now! 10-day predictions STARLINK-3653 is classified as:
1 52000U 22025AW 22187.58334491 .00003454 00000-0 23506-3 0 9990 2 52000 53.2160 284.0540 0001307 82.1925 178.5759 15.08832256 19841